Weather History for KIPT - November, 2013

Change the Weather History Date:

Saturday, November 9, 2013

  Actual Average Record
Temperature  
Mean Temperature 40 °F 44 °F  
Max Temperature 48 °F 53 °F 73 °F (1895)
Min Temperature 32 °F 35 °F 19 °F (1971)
Degree Days  
Heating Degree Days 25 21  
Month to date heating degree days 183 178  
Since 1 July heating degree days 629 721  
Cooling Degree Days 0 0  
Month to date cooling degree days 0 0  
Year to date cooling degree days 863 702  
Moisture  
Dew Point 27 °F    
Average Humidity 62    
Maximum Humidity 82    
Minimum Humidity 42    
Precipitation  
Precipitation 0.00 in 0.11 in 2.16 in (1943)
Month to date precipitation 0.68 1.03  
Year to date precipitation 26.89 35.64  
Snow  
Snow 0.00 in - - ()
Month to date snowfall T  
Since 1 July snowfall T  
Since 1 September snowfall T  
Snow Depth 0.00 in    
Sea Level Pressure  
Sea Level Pressure 30.15 in    
Wind  
Wind Speed 6 mph (South)    
Max Wind Speed 18 mph    
Max Gust Speed 30 mph    
Visibility 10 miles    
Events      
T = Trace of Precipitation, MM = Missing Value Source: NWS Daily Summary

Daily Weather History Graph

Daily Weather History Graph

Search for Another Location

Airport or City:

Trip Planner

Search our weather history database for the weather conditions in past years. The results will help you decide how hot, cold, wet, or windy it might be!

Date:

Astronomy

Nov. 09, 2013 Rise Set
Actual Time 6:48 AM EST 4:53 PM EST
Civil Twilight 6:19 AM EST 5:22 PM EST
Nautical Twilight 5:46 AM EST 5:55 PM EST
Astronomical Twilight 5:14 AM EST 6:28 PM EST
Moon 12:23 PM EST (11/9) 11:22 PM EST (11/9)
Length of Visible Light 11h 03m
Length of Day
10h 04m
Waxing Crescent, 44% of the Moon is Illuminated
Nov 9
Waxing Crescent
Nov 10
First Quarter
Nov 17
Full
Nov 25
Last Quarter
Dec 2
New

Hourly Weather History & Observations

Time (EST) Temp. Windchill Dew Point Humidity Pressure Visibility Wind Dir Wind Speed Gust Speed Precip Events Conditions
12:54 AM 39.9 °F 34.5 °F 27.0 °F 60% 30.27 in 10.0 mi West 8.1 mph - N/A   Overcast
1:54 AM 39.0 °F 32.8 °F 26.1 °F 60% 30.27 in 10.0 mi West 9.2 mph - N/A   Overcast
2:54 AM 37.0 °F 29.8 °F 27.0 °F 67% 30.27 in 10.0 mi West 10.4 mph - N/A   Overcast
3:54 AM 35.1 °F 27.9 °F 26.1 °F 70% 30.28 in 10.0 mi West 9.2 mph - N/A   Clear
4:54 AM 33.1 °F 27.7 °F 26.1 °F 75% 30.29 in 10.0 mi WNW 5.8 mph - N/A   Clear
5:54 AM 32.0 °F - 26.1 °F 79% 30.29 in 10.0 mi Calm Calm - N/A   Clear
6:54 AM 33.1 °F - 27.0 °F 78% 30.30 in 10.0 mi Calm Calm - N/A   Mostly Cloudy
7:54 AM 34.0 °F - 28.0 °F 79% 30.30 in 10.0 mi Calm Calm - N/A   Overcast
8:54 AM 36.0 °F - 27.0 °F 70% 30.29 in 10.0 mi Calm Calm - N/A   Clear
9:54 AM 39.0 °F - 27.0 °F 62% 30.27 in 10.0 mi Calm Calm - N/A   Clear
10:54 AM 42.1 °F - 30.0 °F 62% 30.23 in 10.0 mi Calm Calm - N/A   Clear
11:54 AM 45.0 °F 41.8 °F 27.0 °F 49% 30.19 in 10.0 mi Variable 5.8 mph - N/A   Clear
12:54 PM 46.9 °F - 27.0 °F 46% 30.13 in 10.0 mi SSE 6.9 mph 20.7 mph N/A   Clear
1:54 PM 46.9 °F - 27.0 °F 46% 30.10 in 10.0 mi ESE 15.0 mph 24.2 mph N/A   Clear
2:54 PM 48.0 °F - 27.0 °F 44% 30.06 in 10.0 mi Calm Calm - N/A   Mostly Cloudy
3:54 PM 48.0 °F - 28.0 °F 46% 30.04 in 10.0 mi Variable 5.8 mph - N/A   Clear
4:54 PM 46.9 °F - 27.0 °F 46% 30.01 in 10.0 mi SE 17.3 mph 24.2 mph N/A   Clear
5:54 PM 46.9 °F - 27.0 °F 46% 30.02 in 10.0 mi SSE 11.5 mph 20.7 mph N/A   Clear
6:54 PM 48.0 °F - 26.1 °F 42% 30.02 in 10.0 mi SSE 10.4 mph 24.2 mph N/A   Mostly Cloudy
7:54 PM 48.0 °F - 26.1 °F 42% 30.01 in 10.0 mi Variable 5.8 mph 17.3 mph N/A   Overcast
8:54 PM 46.9 °F - 26.1 °F 44% 29.99 in 10.0 mi East 8.1 mph - N/A   Overcast
9:54 PM 46.9 °F - 27.0 °F 46% 29.96 in 10.0 mi Calm Calm - N/A   Overcast
10:54 PM 46.0 °F 43.9 °F 27.0 °F 47% 29.94 in 10.0 mi SE 4.6 mph - N/A   Overcast
11:54 PM 45.0 °F 42.6 °F 28.0 °F 52% 29.92 in 10.0 mi ENE 4.6 mph - N/A   Overcast